Regional Weather Roundup
Issued by NWS Mobile, AL

Home | Current Version | Previous Version | Text Only | Print | Product List | Glossary On
Versions: 1 2 3 4 5 6 7 8 9 10 11 12 13 14 15 16 17 18 19 20 21 22 23 24 25 26 27 28 29 30 31 32 33 34 35 36 37 38 39 40 41 42 43 44 45 46 47 48 49 50
000
ASUS44 KMOB 150510
RWRMOB
REGIONAL WEATHER ROUNDUP
NATIONAL WEATHER SERVICE MOBILE AL
1200 AM CDT MON SEP 15 2014

NOTE: "FAIR" INDICATES FEW OR NO CLOUDS BELOW 12,000 FEET WITH NO
      SIGNIFICANT WEATHER AND/OR OBSTRUCTIONS TO VISIBILITY.

  * THESE STATIONS ARE PART OF THE UNIVERSITY OF SOUTH ALABAMA
    MESONET AND ARE NOT UNDER NWS OR FAA QUALITY CONTROL.

ALZ061>064-150600-
COASTAL ALABAMA

CITY           SKY/WX    TMP DP  RH WIND       PRES   REMARKS
MOBILE REG APT CLEAR     75  75 100 CALM      30.11S
BROOKLEY FIELD PTCLDY    82  75  79 E6        30.11F
USA CAMPUS*      N/A     75  73  94 CALM      30.10S
DOG RIVER*       N/A     81  75  83 CALM      30.10F


CITY           SKY/WX    TMP DP  RH WIND       PRES   REMARKS
MOUNT VERNON*    N/A     73  72  94 CALM      30.11S
SARALAND*      NOT AVBL
BAY MINETTE*   NOT AVBL
LOXLEY*          N/A     68  68 100 NE2       30.11F
ROBERTSDALE*     N/A    N/A N/A N/A CALM      30.10F
FAIRHOPE*        N/A     75  73  94 CALM      30.10S
ELBERTA*         N/A     77  64  65 N3        30.09F
FOLEY*         NOT AVBL
GRAND BAY*       N/A     75  73  94 N2        30.08F
DAUPHIN ISLND* NOT AVBL
BON SCOUR NWR* NOT AVBL
GULF SHORES    PTCLDY    77  75  93 N5        30.09F

$$

ALZ051>060-150600-
INTERIOR SOUTHWEST AND SOUTH CENTRAL ALABAMA

CITY           SKY/WX    TMP DP  RH WIND       PRES   REMARKS
GREENVILLE     CLEAR     77  72  84 S5        30.12F
EVERGREEN      MOCLDY    78  73  84 S5        30.12F
CASTLEBERRY*   NOT AVBL
ATMORE*          N/A     75  73  94 SE2       30.13S
DIXIE*         NOT AVBL
ANDALUSIA/OPP  PTCLDY    79  72  79 CALM      30.13S
ANDALUSIA*     NOT AVBL
FLORALA APT    PTCLDY    75  71  87 CALM      30.14S
FLORALA*         N/A     73  72  94 NE3       30.10S

$$

FLZ001>006-150600-
WESTERN FLORIDA PANHANDLE

CITY           SKY/WX    TMP DP  RH WIND       PRES   REMARKS
PENSACOLA      PTCLDY    77  74  90 N3        30.09F
NAS PENSACOLA  MOCLDY    80  76  87 N7        30.08F
MILTON         MOCLDY    75  74  96 CALM      30.10F
WHTNG S FIELD  MOCLDY    76  74  93 CALM      30.10F


CITY           SKY/WX    TMP DP  RH WIND       PRES   REMARKS
WALNUT HILL*   NOT AVBL
JAY*           NOT AVBL
DUKE FIELD     MOCLDY    75  75 100 CALM      30.10F
CRESTVIEW      PTCLDY    74  71  91 CALM      30.12F
VALPARAISO     MOCLDY    77  74  90 NW1       30.10S
DESTIN         PTCLDY    80  77  90 E3        30.10S

$$

MSZ076-079-150600-
INTERIOR SOUTHEAST MISSISSIPPI

CITY           SKY/WX    TMP DP  RH WIND       PRES   REMARKS
LEAKESVILLE*   NOT AVBL
AGRICOLA*      NOT AVBL

$$

MARINE OBSERVATIONS

STATION/POSITION TIME  TEMP    WIND        PRES    WAVE
                       AIR SEA DIR/SP/G            HT/PER
                 (UTC) (F)     (DEG/KT/KT) (MB)    (FT/S)
PASCAGOULA       0500   80      40/  5/  6 1018.7F
PETIT BOIS ISLND 0500   83     100/  6/  8 1019.0F
GRAND BAY        0400   82      40/  3     1020.0S
KATRINA CUT      0400   85     110/  9     1019.6S
CEDAR POINT      0400   83     110/  8     1019.0F
E DAUPHIN ISLAND 0357   85     100/  9/  9 1019.1F
MIDDLE BAY LIGHT 0400   82      70/  7     1019.0R
USCG MOBILE BAY  0500   83 87   90/  5/  7 1018.2F
STATE DOCKS      0500   81 86              1019.1F
MEAHER PARK      0400   79      50/  3     1019.3S
WEEKS BAY        0400   77                   N/A
FORT MORGAN      0500   83     120/ 10/ 12 1018.4F
12 S ORANGE BCH  0500   85 86  120/ 10/ 12 1018.7F   3/ 7
PENSACOLA BAY    0500   82 87   20/  5/  8 1019.4R
64 S DAUPHIN ISL 0433   84 86  110/ 14/ 16 1018.7F   4/ 7

$$

SELECTED LOCATIONS ACROSS THE REGION

CITY           SKY/WX    TMP DP  RH WIND       PRES   REMARKS
NEW ORLEANS    PTCLDY    81  75  82 CALM      30.08F
GULFPORT       CLEAR     79  74  84 CALM      30.08F
PASCAGOULA AP  CLEAR     75  73  93 CALM      30.09F
PASCAGOULA*      N/A     77  77 100 CALM      30.09S
HATTIESBURG    PTCLDY    77  73  87 CALM      30.11F
LAUREL         PTCLDY    75  70  83 N3        30.13S
MERIDIAN       CLEAR     72  67  84 N6        30.13S
JACKSON        CLEAR     71  68  90 CALM      30.13S
MONTGOMERY     CLOUDY    79  73  83 NE6       30.13F
TROY           PTCLDY    76  73  91 E3        30.14S
KINSTON*       NOT AVBL
GENEVA*          N/A     73  70  88 CALM      30.13F
ASHFORD*       NOT AVBL
DOTHAN         CLEAR     75  72  90 NW3       30.16F
PANAMA CITY    PTCLDY    76  73  91 CALM      30.10F

$$




USA.gov is the U.S. government's official web portal to all federal, state and local government web resources and services.